Regional Weather Roundup
Issued by NWS

Home | Current Version | Previous Version | Text Only | Print | Product List | Glossary On
Versions: 1 2 3 4 5 6 7 8 9 10 11 12 13 14 15 16 17 18 19 20 21 22 23 24 25 26 27 28 29 30 31 32 33 34 35 36 37 38 39 40 41 42 43 44 45 46 47 48 49 50
000
ASUS45 KSLC 300910
RWRUT

UTAH REGIONAL WEATHER ROUNDUP
NATIONAL WEATHER SERVICE SALT LAKE CITY UT
300 AM MDT SUN APR 30 2017

UTZ001>011-023>025-301000-

NORTHERN UTAH

CITY           SKY/WX    TMP DP  RH WIND       PRES   REMARKS
BRIGHAM CITY   CLEAR     39  33  77 E3        30.18F
HILL AFB       CLEAR     39  25  58 E13       30.19F WCI  31
LOGAN          CLEAR     35  30  82 NE5       30.18F WCI  31
OGDEN          CLEAR     38  27  64 S9        30.18F WCI  31
SALT LAKE CITY CLEAR     41  30  65 SE7       30.19S
TOOELE VALLEY  CLEAR     36  30  80 S10       30.19F WCI  28
WENDOVER       CLEAR     41  31  67 NW3       30.18F
HEBER CITY     CLEAR     27  21  80 CALM      30.21S
WEST JORDAN    CLEAR     40  34  80 CALM      30.20S

$$

UTZ011>015-024>027-301000-

CENTRAL/NORTHEAST UTAH

CITY           SKY/WX    TMP DP  RH WIND       PRES   REMARKS
PROVO AIRPORT  CLEAR     34  26  72 E6        30.21S WCI  29
MOAB/CANYONLAN CLEAR     37  14  38 NW3       30.16F
DELTA          PTCLDY    34  23  64 SE5       30.21S WCI  30
PRICE          CLEAR     32  18  56 N9        30.18F WCI  24
RICHFIELD      CLEAR     28  25  86 CALM      30.24F
ROOSEVELT      CLEAR     30  21  69 SW8       30.20F WCI  23
VERNAL         CLEAR     28  19  69 W6        30.18F WCI  22

$$

UTZ013>016-019>022-027-301000-

SOUTHERN UTAH

CITY           SKY/WX    TMP DP  RH WIND       PRES   REMARKS
BRYCE CANYON   CLEAR     20  13  74 W5        30.23S WCI  13
CEDAR CITY     CLEAR     32  17  54 CALM      30.20F
MILFORD        CLEAR     32  18  56 W5        30.21F WCI  27
ST GEORGE      SUNNY     53  21  28 N8        30.16S
HANKSVILLE     CLEAR     39  18  41 N8        30.19F WCI  34
KANAB          CLEAR     36  19  51 NE3       30.23F
BLANDING       CLEAR     35  16  47 S7        30.19R WCI  29

$$

REGIONAL REPORTS     COLORADO/ARIZONA

CITY           SKY/WX    TMP DP  RH WIND       PRES   REMARKS
CRAIG, CO      CLEAR     22  17  81 SW3       30.17S
GRAND JUNCTION CLEAR     30  16  56 CALM      30.16S
RIFLE, CO      CLEAR     33  20  58 W5        30.15F WCI  29
MONTROSE, CO   MOCLDY    34  23  64 E6        30.16S WCI  29
CORTEZ, CO     CLEAR     35  21  56 N7        30.10F WCI  29
COLORADO CITY    N/A     37  21  52 N3        30.21F
PAGE, AZ       CLEAR     51  19  28 NW6       30.15S
GRAND CANYON   CLEAR     25  12  58 CALM      30.21F HAZE
KINGMAN, AZ    CLEAR     44  18  35 SE9       30.14F
FLAGSTAFF, AZ  CLEAR     30  12  47 NE5       30.19S WCI  25

$$

REGIONAL REPORTS    NEVADA/IDAHO/WYOMING

CITY           SKY/WX    TMP DP  RH WIND       PRES   REMARKS
LAS VEGAS, NV  CLEAR     64  14  14 N7        30.11F
ELY, NY        CLEAR     29  18  63 S12       30.24F WCI  19
ELKO, NV       CLEAR     37  28  70 CALM      30.20F
POCATELLO, ID  CLOUDY    38  26  62 SW9       30.15S WCI  31
BURLEY, ID     PTCLDY    41  26  55 SW12      30.14S
FORT BRIDGER,    N/A     32  21  64 W12       30.21F WCI  23
EVANSTON, WY   CLEAR     29  21  72 S6        30.20F WCI  23
ROCK SPRINGS,  CLEAR     27  19  72 W8        30.16F WCI  19
KEMMERER, WY     N/A     28  23  80 NW3       30.18F

$$



USA.gov is the U.S. government's official web portal to all federal, state and local government web resources and services.